Tracking 31027 objects as of 19-Jul-2025
HD Live streaming from Space Station
objects crossing your sky now

METEOR 2-11 DEB

Track METEOR 2-11 DEB now!
10-day predictions


NORAD ID: 40317
Int'l Code: 1984-072C
Perigee: 901.7 km
Apogee: 914.6 km
Inclination: 82.5 °
Period: 103.0 minutes
Semi major axis: 7279 km
RCS: Unknown
Launch date: July 5, 1984
Source: Commonwealth of Independent States (former USSR) (CIS)
Launch site: PLESETSK MISSILE AND SPACE COMPLEX (PKMTR)

Note: This is SATELLITE DEBRIS
Your satellite tracking list
STARLINK-3674
Track 1 satellite(s)




NASA's NSSDC Master Catalog

Two Line Element Set (TLE):
1 40317U 84072C   25193.56631313  .00002072  00000-0  14522-2 0  9991
2 40317  82.5194 283.3309 0008886 294.3737  65.6503 13.97912523538530
Source of the keplerian elements: AFSPC